"TOA5","AWS1","CR1000","7964","CR1000.Std.14","CPU:AWS1_114.CR1","64363","TBL110"
"TIMESTAMP","RECORD","Wind_spd_WVc(1)","Wind_spd_WVc(2)","Air_Temp_Avg","Humidity_Avg","SW_upper_Wm2_Avg","Rain_Tot","Press_Avg","Issui_Tot","Depth_cm","SR50A_Raw","Quality","Ground_Temp_Avg(1)","Ground_Temp_Avg(2)","SW_lower_Wm2_Avg","Albedo_Avg","SWC_per(1)","SWC_per(2)","Period(1)","Period(2)"
"TS","RN","","","","","","","","","","","","","","","","","","",""
"","","WVc","WVc","Avg","Avg","Avg","Tot","Avg","Tot","Smp","Smp","Smp","Avg","Avg","Avg","Avg","Smp","Smp","Smp","Smp"
"2017-12-23 00:00:00",320029,0.366,148.2,-3.231,76.5,0,0,867.9459,0,31.54,2.88,178,2.411,3.333,0.5614272,0,51.99,59.5,33.79,35.56
"2017-12-23 00:10:00",320030,0.393,189.1,-2.633,73.99,0,0,867.9121,0,31.87,2.873,170,2.413,3.321,0.7131643,0,51.99,59.5,33.79,35.56
"2017-12-23 00:20:00",320031,0.175,282.2,-1.861,68.66,0.07081763,0,867.7434,0,31.55,2.873,174,2.413,3.319,0.8459342,0.627,51.99,59.5,33.79,35.56
"2017-12-23 00:30:00",320032,0.11,131.1,-1.958,70.14,0.0590147,0,867.7317,0,31.38,2.878,170,2.414,3.319,0.5538403,0.828,51.99,59.44,33.79,35.55
"2017-12-23 00:40:00",320033,0.186,185.4,-2.346,72.81,0,0,867.7247,0,31.36,2.88,170,2.414,3.319,0.1707042,0,51.99,59.5,33.79,35.56
"2017-12-23 00:50:00",320034,0.067,185.5,-2.356,73.22,0,0,867.6806,0,31.24,2.878,174,2.421,3.318,0.3414084,0,51.94,59.44,33.77,35.55
"2017-12-23 01:00:00",320035,0.158,185.7,-2.26,73.23,0.01573725,0,867.7097,0,31.78,2.873,178,2.415,3.312,0.4210704,0.193,51.99,59.5,33.79,35.56
"2017-12-23 01:10:00",320036,0.057,186,-1.885,70.3,0.137701,0,867.8591,0,31.35,2.878,170,2.426,3.292,0.7510985,2.202,51.94,59.5,33.77,35.56
"2017-12-23 01:20:00",320037,0.027,186.4,-2.054,73.51,0,0,867.866,0,31.45,2.875,174,2.436,3.279,0.5007285,0,51.94,59.5,33.77,35.56
"2017-12-23 01:30:00",320038,0.139,171.1,-2.35,76.76,0,0,867.6384,0,31.66,2.877,179,2.433,3.272,0.2313956,0,51.99,59.5,33.79,35.56
"2017-12-23 01:40:00",320039,0.044,226,-2.009,70.93,0.1494924,0,867.7289,0,31.46,2.874,174,2.408,3.259,0.6713883,2.041,51.99,59.5,33.79,35.56
"2017-12-23 01:50:00",320040,0.002,220,-1.701,68.27,0.02753799,0,867.7953,0,31.32,2.875,170,2.393,3.254,0.7320681,0.514,51.99,59.44,33.79,35.55
"2017-12-23 02:00:00",320041,0.048,206.8,-1.671,67.93,0,0,867.8439,0,31.07,2.879,170,2.384,3.242,0.7054829,0,51.99,59.5,33.79,35.56
"2017-12-23 02:10:00",320042,0.262,182.4,-2.304,76.15,0,0,867.6032,0,31.41,2.876,171,2.373,3.235,0.2275697,0,51.99,59.5,33.79,35.56
"2017-12-23 02:20:00",320043,0.328,170.2,-1.713,70.69,0,0,867.5905,0,31.69,2.871,183,2.389,3.231,0.694074,0,51.99,59.44,33.79,35.55
"2017-12-23 02:30:00",320044,0.036,17.07,-1.521,69.22,0,0,867.7316,0,31.45,2.873,174,2.41,3.22,0.6561219,0,51.99,59.5,33.79,35.56
"2017-12-23 02:40:00",320045,0.046,319.6,-1.443,68.64,0,0,867.6199,0,31.45,2.873,170,2.426,3.209,0.4095848,0,51.99,59.5,33.79,35.56
"2017-12-23 02:50:00",320046,0.26,34.2,-1.486,68.86,0.01573321,0,867.7822,0,31.44,2.874,178,2.428,3.21,0.5574909,0.257,51.99,59.5,33.79,35.56
"2017-12-23 03:00:00",320047,0.248,140.3,-1.75,70.94,0,0,867.6663,0,31.55,2.873,180,2.421,3.202,0.3071794,0,51.99,59.5,33.79,35.56
"2017-12-23 03:10:00",320048,0.412,153.7,-1.739,71.57,0,0,867.6073,0,31.23,2.879,174,2.417,3.196,0.4133567,0,51.99,59.5,33.79,35.56
"2017-12-23 03:20:00",320049,0.284,76.53,-1.906,72.77,0,0,867.5925,0,31.6,2.873,170,2.415,3.195,0.3413018,0,51.94,59.5,33.77,35.56
"2017-12-23 03:30:00",320050,0.426,142.6,-1.575,71.69,0,0,867.6094,0,31.4,2.875,170,2.413,3.192,0.6029603,0,51.94,59.5,33.77,35.56
"2017-12-23 03:40:00",320051,0.403,149.6,-1.694,73.42,0,0,867.4197,0,31.45,2.875,175,2.41,3.189,0.2123611,0,51.94,59.5,33.77,35.56
"2017-12-23 03:50:00",320052,0.315,176.3,-1.708,74.13,0,0,867.3376,0,31.45,2.874,170,2.409,3.188,0.189607,0,51.99,59.5,33.79,35.56
"2017-12-23 04:00:00",320053,0.342,109.8,-1.522,74.12,0,0,867.4134,0,31.45,2.874,170,2.409,3.189,0.477809,0,51.99,59.5,33.79,35.56
"2017-12-23 04:10:00",320054,0.289,120.4,-1.579,75.77,0,0,867.386,0,31.46,2.874,170,2.409,3.19,0.3640448,0,51.94,59.5,33.77,35.56
"2017-12-23 04:20:00",320055,0.147,151.2,-1.653,76.98,0,0,867.3397,0,31.32,2.876,174,2.409,3.187,0.2616573,0,51.94,59.5,33.77,35.56
"2017-12-23 04:30:00",320056,0.142,119.4,-1.655,77.66,0,0,867.3376,0,31.31,2.875,170,2.409,3.187,0.3223314,0,51.94,59.5,33.77,35.56
"2017-12-23 04:40:00",320057,0.091,151.8,-1.579,77.02,0,0,867.3418,0,31.36,2.875,174,2.409,3.187,0.3526685,0,51.94,59.5,33.77,35.56
"2017-12-23 04:50:00",320058,0.129,161.7,-1.556,77.13,0,0,867.3397,0,31.31,2.875,174,2.409,3.196,0.3640448,0,51.94,59.5,33.77,35.56
"2017-12-23 05:00:00",320059,0.105,81.8,-1.597,77.65,0,0,867.3354,0,31.36,2.875,170,2.409,3.192,0.3450842,0,51.94,59.5,33.77,35.56
"2017-12-23 05:10:00",320060,0.028,118.1,-1.627,78.87,0,0,867.4113,0,31.42,2.875,178,2.409,3.192,0.3033707,0,51.99,59.5,33.79,35.56
"2017-12-23 05:20:00",320061,0.011,128.7,-1.701,80.4,0,0,867.4682,0,31.22,2.877,170,2.409,3.192,0.3147471,0,51.94,59.5,33.77,35.56
"2017-12-23 05:30:00",320062,0.109,289.9,-1.819,82.5,0,0,867.4619,0,31.15,2.878,170,2.409,3.196,0.2351123,0,51.99,59.5,33.79,35.56
"2017-12-23 05:40:00",320063,0.093,308.3,-1.941,85.1,0,0,867.5209,0,31.19,2.878,171,2.409,3.195,0.1403089,0,51.99,59.5,33.79,35.56
"2017-12-23 05:50:00",320064,0.025,322.8,-1.931,86.7,0,0,867.5841,0,31.14,2.879,193,2.409,3.197,0.1744382,0,51.94,59.5,33.77,35.56
"2017-12-23 06:00:00",320065,0.015,322.8,-1.915,87.3,0,0,867.5905,0,30.95,2.88,176,2.409,3.192,0.2275281,0,51.99,59.5,33.79,35.56
"2017-12-23 06:10:00",320066,0.006,322.8,-1.939,87.4,0,0,867.5905,0,30.79,2.883,172,2.409,3.189,0.04550561,0,51.99,59.44,33.79,35.55
"2017-12-23 06:20:00",320067,0.051,322.8,-2.261,88.9,0,0,867.5905,0,30.83,2.883,188,2.409,3.19,0,0,51.99,59.5,33.79,35.56
"2017-12-23 06:30:00",320068,0,0,-2.068,89.7,0,0,867.8011,0,30.6,2.884,176,2.409,3.191,0.1365168,0,51.99,59.5,33.79,35.56
"2017-12-23 06:40:00",320069,0.015,322.8,-1.911,89.1,0,0,867.9066,0,30.79,2.882,187,2.409,3.188,0.4209269,0,51.94,59.5,33.77,35.56
"2017-12-23 06:50:00",320070,0.001,322.8,-1.86,89.5,0,0,867.8539,0,31.18,2.879,193,2.409,3.188,0.4550561,0,51.99,59.5,33.79,35.56
"2017-12-23 07:00:00",320071,0.006,303.9,-1.979,90.6,0.4640908,0,867.8497,0,31.13,2.88,194,2.409,3.187,0.7129212,1.519,51.94,59.5,33.77,35.56
"2017-12-23 07:10:00",320072,0.04,200.6,-1.995,91.4,2.139537,0,867.8982,0,30.69,2.883,194,2.409,3.196,1.820224,0.876,51.94,59.5,33.77,35.56
"2017-12-23 07:20:00",320073,0,0,-2.028,91.9,5.549424,0,867.8582,0,30.69,2.884,195,2.409,3.198,4.311656,0.781,51.94,59.5,33.77,35.56
"2017-12-23 07:30:00",320074,0,0,-2.045,92.9,7.2642,0,868.0436,0,30.74,2.883,194,2.409,3.213,5.475841,0.757,51.99,59.5,33.79,35.56
"2017-12-23 07:40:00",320075,0.019,277.1,-1.95,92.3,13.37604,0,868.0942,0,30.84,2.882,194,2.409,3.206,9.461374,0.709,51.99,59.5,33.79,35.56
"2017-12-23 07:50:00",320076,0.191,304.7,-2.008,93.3,19.86544,0,868.0984,0,30.84,2.882,185,2.409,3.201,13.51137,0.681,51.99,59.5,33.79,35.56
"2017-12-23 08:00:00",320077,0.198,313.4,-1.987,93.7,30.00465,0,868.1806,0,30.74,2.883,193,2.409,3.193,20.17415,0.674,51.94,59.5,33.77,35.56
"2017-12-23 08:10:00",320078,0,0,-1.878,93.2,33.15496,0,868.345,0,30.5,2.885,193,2.409,3.199,22.66558,0.687,51.99,59.44,33.79,35.55
"2017-12-23 08:20:00",320079,0.04,133.5,-1.829,93,77.34584,0,868.3492,0,30.76,2.881,194,2.409,3.209,52.62345,0.678,51.94,59.5,33.77,35.56
"2017-12-23 08:30:00",320080,0.143,134.2,-1.503,91.8,50.59769,0,868.3492,0,30.58,2.88,185,2.409,3.199,47.64437,0.925,51.99,59.5,33.79,35.56
"2017-12-23 08:40:00",320081,0.445,159.8,-0.841,87.3,81.34567,0,868.3576,0,30.55,2.878,188,2.368,3.257,75.74788,0.919,51.99,59.44,33.79,35.55
"2017-12-23 08:50:00",320082,0.364,167.6,-0.542,84,82.63962,0,868.5178,0,30.65,2.877,179,2.325,3.272,65.28538,0.784,51.94,59.5,33.77,35.56
"2017-12-23 09:00:00",320083,0.335,169.1,-0.489,83.1,117.8004,0,868.6022,0,30.62,2.876,188,2.327,3.274,78.18621,0.662,52.05,59.5,33.8,35.56
"2017-12-23 09:10:00",320084,0.672,192.9,-0.573,82.4,99.03225,0,868.7139,0,30.6,2.878,189,2.355,3.274,63.05561,0.637,51.99,59.5,33.79,35.56
"2017-12-23 09:20:00",320085,0.499,110,-0.675,82.3,101.9348,0,868.8593,0,30.7,2.877,192,2.381,3.273,64.05294,0.628,51.94,59.5,33.77,35.56
"2017-12-23 09:30:00",320086,0.599,67.53,-0.609,81.7,129.0841,0,868.8482,0,30.61,2.877,188,2.421,3.263,81.12512,0.629,51.99,59.5,33.79,35.56
"2017-12-23 09:40:00",320087,0.567,100.9,-0.419,80.6,125.8394,0,868.8419,0,30.53,2.876,180,2.477,3.237,80.52976,0.642,51.94,59.5,33.77,35.56
"2017-12-23 09:50:00",320088,0.555,161.7,-0.26,80.2,131.2112,0,868.8858,0,30.55,2.874,180,2.483,3.222,84.36073,0.653,51.94,59.5,33.77,35.56
"2017-12-23 10:00:00",320089,0.492,145.8,-0.109,78.78,125.5971,0,869.0268,0,30.57,2.875,189,2.474,3.182,77.71723,0.619,51.94,59.5,33.77,35.56
"2017-12-23 10:10:00",320090,0.513,200.1,-0.174,78.61,106.9831,0,868.8939,0,30.46,2.877,188,2.452,3.161,69.56296,0.65,51.99,59.5,33.79,35.56
"2017-12-23 10:20:00",320091,0.621,181.1,-0.098,78.56,96.87562,0,868.7633,0,30.96,2.87,184,2.428,3.124,73.11974,0.745,51.94,59.5,33.77,35.56
"2017-12-23 10:30:00",320092,0.601,184.4,0.387,74.82,195.7971,0,868.767,0,30.22,2.875,179,2.36,3.135,132.6949,0.674,51.94,59.5,33.77,35.56
"2017-12-23 10:40:00",320093,0.497,211.6,0.576,73.3,187.9731,0,868.7627,0,30.44,2.873,185,2.324,3.183,116.9751,0.616,51.99,59.5,33.79,35.56
"2017-12-23 10:50:00",320094,0.74,170.7,0.581,74.43,136.0465,0,868.5898,0,30.83,2.866,192,2.322,3.187,118.6649,0.982,51.94,59.5,33.77,35.56
"2017-12-23 11:00:00",320095,0.869,289.4,0.849,70.95,142.5138,0,868.5098,0,30.42,2.873,184,2.321,3.207,133.2329,0.97,51.99,59.5,33.79,35.56
"2017-12-23 11:10:00",320096,0.634,204.6,0.809,71.27,209.43,0,868.5013,0,30.9,2.865,179,2.321,3.228,161.4556,0.777,51.94,59.5,33.77,35.56
"2017-12-23 11:20:00",320097,0.726,259.4,1.223,68.15,291.9235,0,868.3412,0,30.06,2.873,170,2.318,3.233,174.2648,0.602,51.94,59.5,33.77,35.56
"2017-12-23 11:30:00",320098,0.6,203.9,1.436,65.94,363.2157,0,868.2447,0,30.49,2.868,171,2.303,3.204,204.1329,0.566,51.99,59.5,33.79,35.56
"2017-12-23 11:40:00",320099,0.317,327.1,1.135,67.92,157.6461,0,868.0201,0,30.27,2.872,180,2.362,3.186,94.54704,0.599,51.99,59.5,33.79,35.56
"2017-12-23 11:50:00",320100,0.682,285.7,0.588,72.49,148.301,0,867.9301,0,30.36,2.874,189,2.358,3.173,88.81841,0.599,51.99,59.5,33.79,35.56
"2017-12-23 12:00:00",320101,0.45,284.5,0.419,74.2,215.3253,0,867.9144,0,30.25,2.875,194,2.324,3.137,130.3115,0.605,51.94,59.5,33.77,35.56
"2017-12-23 12:10:00",320102,0.395,295.8,0.388,75.25,206.116,0,867.9127,0,30.34,2.874,184,2.323,3.112,121.6362,0.592,51.94,59.44,33.77,35.55
"2017-12-23 12:20:00",320103,0.554,301.9,0.427,74.81,232.5872,0,867.8217,0,30.36,2.874,186,2.321,3.102,137.4306,0.592,51.99,59.5,33.79,35.56
"2017-12-23 12:30:00",320104,0.349,282.3,0.612,74.79,285.812,0,867.6973,0,30.33,2.873,188,2.335,3.098,158.2787,0.566,51.99,59.44,33.79,35.55
"2017-12-23 12:40:00",320105,0.543,297.1,0.82,71.78,357.9513,0,867.6678,0,30.53,2.869,188,2.331,3.098,175.3652,0.494,51.99,59.5,33.79,35.56
"2017-12-23 12:50:00",320106,0.429,214.5,1.725,67.99,398.4132,0,867.6573,0,30.18,2.87,193,2.314,3.135,185.0624,0.463,51.94,59.5,33.77,35.56
"2017-12-23 13:00:00",320107,0.529,104,1.816,65.14,233.7066,0,867.4299,0,29.65,2.875,190,2.283,3.16,126.5026,0.595,51.99,59.5,33.79,35.56
"2017-12-23 13:10:00",320108,0.637,178.9,1.602,64.91,204.8505,0,867.4067,0,30.21,2.869,192,2.285,3.157,136.8556,0.668,51.99,59.44,33.79,35.55
"2017-12-23 13:20:00",320109,0.587,203.9,1.661,63.86,158.1862,0,867.4067,0,30.21,2.871,179,2.284,3.142,101.1354,0.632,51.94,59.44,33.77,35.55
"2017-12-23 13:30:00",320110,0.655,108.6,0.952,63.17,92.40498,0,867.4067,0,30.62,2.869,188,2.302,3.179,55.44862,0.6,51.99,59.44,33.79,35.55
"2017-12-23 13:40:00",320111,1.038,311.7,0.67,63.58,90.51451,0,867.4067,0,30.4,2.873,181,2.344,3.132,55.01282,0.609,51.94,59.5,33.77,35.56
"2017-12-23 13:50:00",320112,0.513,276.3,0.543,65.75,85.73921,0,867.3835,0,30.2,2.875,179,2.298,3.114,55.01282,0.637,51.99,59.5,33.79,35.56
"2017-12-23 14:00:00",320113,0.801,280.6,0.688,64.04,107.3086,0,867.3898,0,30.74,2.868,183,2.28,3.136,66.73009,0.623,51.99,59.5,33.79,35.56
"2017-12-23 14:10:00",320114,0.641,240,1.168,61.64,132.5607,0,867.4025,0,30.31,2.87,184,2.271,3.136,77.48861,0.585,51.99,59.5,33.79,35.56
"2017-12-23 14:20:00",320115,0.563,264.7,1.278,60.94,139.1204,0,867.4067,0,30.58,2.868,188,2.268,3.133,82.83566,0.596,51.99,59.5,33.79,35.56
"2017-12-23 14:30:00",320116,0.488,147.7,1.06,62.81,83.43213,0,867.4088,0,30.57,2.869,172,2.258,3.136,51.1058,0.613,51.94,59.5,33.77,35.56
"2017-12-23 14:40:00",320117,0.469,204.7,0.967,63.74,77.85506,0,867.4277,0,30.37,2.871,188,2.228,3.139,47.71415,0.613,51.94,59.44,33.77,35.55
"2017-12-23 14:50:00",320118,0.28,237.5,0.863,64.09,74.69903,0,867.571,0,30.56,2.87,185,2.227,3.145,45.8497,0.614,51.99,59.5,33.79,35.56
"2017-12-23 15:00:00",320119,0.257,270.1,0.833,62.79,68.33983,0,867.6826,0,30.41,2.872,189,2.231,3.16,41.88584,0.613,51.94,59.44,33.77,35.55
"2017-12-23 15:10:00",320120,1.329,294.6,0.579,63.06,46.26341,0,867.9037,0,30.66,2.871,176,2.232,3.178,28.72096,0.621,51.94,59.5,33.77,35.56
"2017-12-23 15:20:00",320121,1,287.9,0.342,65.83,29.85852,0,867.9543,0,30.9,2.87,189,2.234,3.164,18.90233,0.635,51.94,59.5,33.77,35.56
"2017-12-23 15:30:00",320122,0.544,8.78,0.156,68.92,25.741,0,868.1143,0,30.56,2.874,180,2.25,3.153,16.35666,0.636,51.99,59.5,33.79,35.56
"2017-12-23 15:40:00",320123,0.215,237.8,-0.034,73.61,30.45276,0,868.108,0,30.58,2.875,177,2.286,3.155,19.04547,0.626,51.94,59.44,33.77,35.55
"2017-12-23 15:50:00",320124,0.249,273.4,-0.132,74.7,28.95408,0,868.1671,0,30.7,2.873,189,2.325,3.158,17.77757,0.614,51.94,59.44,33.77,35.55
"2017-12-23 16:00:00",320125,0.219,81.8,-0.015,73.5,33.24486,0,868.2755,0,30.72,2.873,185,2.352,3.152,20.10601,0.607,51.94,59.44,33.77,35.55
"2017-12-23 16:10:00",320126,0.79,169.9,-0.002,72.22,23.71536,0,868.4109,0,30.69,2.873,184,2.391,3.161,14.93955,0.631,51.99,59.44,33.79,35.55
"2017-12-23 16:20:00",320127,1.046,172.4,-0.037,71.49,10.98493,0,868.4704,0,30.74,2.873,193,2.405,3.146,7.414855,0.687,51.94,59.44,33.77,35.55
"2017-12-23 16:30:00",320128,0.888,169.8,-0.156,71.27,5.594701,0,868.496,0,30.68,2.874,189,2.406,3.15,4.746124,0.937,51.94,59.44,33.77,35.55
"2017-12-23 16:40:00",320129,0.59,165.3,-0.307,70.91,0.2241027,0,868.5064,0,30.57,2.876,188,2.406,3.159,2.028097,0.853,51.99,59.44,33.79,35.55
"2017-12-23 16:50:00",320130,0.223,249.2,-0.48,70.45,0,0,868.5089,0,30.71,2.876,187,2.397,3.184,0.3639203,0,51.94,59.5,33.77,35.56
"2017-12-23 17:00:00",320131,0.165,282.7,-0.568,69.42,0,0,868.6465,0,30.74,2.875,192,2.318,3.184,0,0,51.99,59.44,33.79,35.55
"2017-12-23 17:10:00",320132,0.114,79,-0.52,69.13,0,0,868.7626,0,30.68,2.877,193,2.262,3.184,0.1402609,0,51.94,59.44,33.77,35.55
"2017-12-23 17:20:00",320133,0.147,58.27,-0.441,67.39,0,0,868.7667,0,30.23,2.879,185,2.247,3.184,0.2009143,0,51.99,59.44,33.79,35.55
"2017-12-23 17:30:00",320134,0.641,163.8,-0.634,69.04,0,0,868.7626,0,30.48,2.881,185,2.271,3.184,0.1781693,0,51.94,59.44,33.77,35.55
"2017-12-23 17:40:00",320135,0.52,163.4,-1.462,72.98,0,0,868.712,0,30.81,2.88,185,2.302,3.178,0,0,51.99,59.44,33.79,35.55
"2017-12-23 17:50:00",320136,0.813,167.4,-1.107,69.65,0,0,868.6699,0,30.48,2.881,194,2.319,3.159,0.1933327,0,51.94,59.44,33.77,35.55
"2017-12-23 18:00:00",320137,0.399,163.2,-0.956,67.91,0,0,868.9079,0,30.43,2.879,176,2.32,3.124,0.1288889,0,51.94,59.44,33.77,35.55
"2017-12-23 18:10:00",320138,0.936,171.6,-0.735,66.46,0,0,868.9016,0,30.29,2.881,180,2.326,3.131,0.1213084,0,51.94,59.44,33.77,35.55
"2017-12-23 18:20:00",320139,0.963,164.5,-1.063,66.17,0,0,868.7741,0,30.72,2.878,189,2.347,3.14,0.003791099,0,51.94,59.44,33.77,35.55
"2017-12-23 18:30:00",320140,0.834,174.7,-0.817,61.42,0,0,868.86,0,30.66,2.877,181,2.376,3.161,0.01516647,0,51.99,59.44,33.79,35.55
"2017-12-23 18:40:00",320141,0.719,191.9,-0.61,60.13,0,0,868.9807,0,30.56,2.878,196,2.396,3.188,0.08342142,0,51.94,59.44,33.77,35.55
"2017-12-23 18:50:00",320142,0.593,175.4,-0.577,59.71,0,0,868.8231,0,30.56,2.878,188,2.404,3.205,0.04550466,0,51.94,59.44,33.77,35.55
"2017-12-23 19:00:00",320143,0.585,192,-0.648,59.79,0,0,868.8756,0,30.46,2.878,188,2.407,3.194,0.09859512,0,51.99,59.44,33.79,35.55
"2017-12-23 19:10:00",320144,0.805,186.7,-0.42,58,0,0,869.0751,0,30.76,2.875,179,2.408,3.188,0.2237354,0,51.94,59.44,33.77,35.55
"2017-12-23 19:20:00",320145,0.554,167.8,-0.891,60.95,0,0,869.0646,0,30.64,2.879,184,2.409,3.192,0.02275277,0,51.94,59.44,33.77,35.55
"2017-12-23 19:30:00",320146,0.598,178.4,-1.013,60.91,0,0,869.0507,0,30.14,2.884,183,2.409,3.186,0,0,51.88,59.44,33.76,35.55
"2017-12-23 19:40:00",320147,0.714,177.8,-1.139,61.93,0,0,869.0251,0,30.56,2.883,180,2.409,3.187,0.05308982,0,51.94,59.44,33.77,35.55
"2017-12-23 19:50:00",320148,0.532,181.9,-1.482,63.84,0,0,869.0108,0,30.84,2.879,189,2.409,3.187,0,0,51.94,59.44,33.77,35.55
"2017-12-23 20:00:00",320149,0.33,171.6,-1.338,63.14,0,0,869.0635,0,30.2,2.887,189,2.409,3.187,0.09859539,0,51.94,59.44,33.77,35.55
"2017-12-23 20:10:00",320150,0.074,159.2,-1.716,64.71,0,0,869.1057,0,29.89,2.892,181,2.409,3.187,0,0,51.94,59.44,33.77,35.55
"2017-12-23 20:20:00",320151,0,0,-2.139,67.11,0,0,869.2068,0,30.25,2.887,184,2.406,3.187,0,0,51.94,59.44,33.77,35.55
"2017-12-23 20:30:00",320152,0.147,163.8,-2.221,67.76,0,0,869.5609,0,30.67,2.889,176,2.374,3.189,0,0,51.94,59.44,33.77,35.55
"2017-12-23 20:40:00",320153,0.423,184.9,-2.726,70.08,0,0,869.3965,0,30.15,2.894,184,2.348,3.188,0.01137639,0,51.94,59.44,33.77,35.55
"2017-12-23 20:50:00",320154,0.133,186.2,-2.736,70.64,0,0,869.3691,0,30.33,2.888,175,2.332,3.191,0.00379213,0,51.94,59.44,33.77,35.55
"2017-12-23 21:00:00",320155,0.223,186.5,-2.758,70.74,0,0,869.2026,0,30.88,2.883,179,2.324,3.223,0.01516852,0,51.94,59.44,33.77,35.55
"2017-12-23 21:10:00",320156,0.06,98.1,-1.22,62.95,0,0,869.074,0,30.44,2.881,189,2.34,3.23,1.194521,0,51.94,59.44,33.77,35.55
"2017-12-23 21:20:00",320157,0.275,194.6,-1.374,63.97,0,0,869.0467,0,30.24,2.888,188,2.328,3.231,0.6977519,0,51.88,59.44,33.76,35.55
"2017-12-23 21:30:00",320158,0.103,147.4,-2.134,67.36,0,0,868.8506,0,30.76,2.88,184,2.321,3.244,0.1706459,0,51.94,59.44,33.77,35.55
"2017-12-23 21:40:00",320159,0.294,179.6,-0.992,61.13,0,0,868.7242,0,29.75,2.89,181,2.319,3.23,1.084549,0,51.94,59.44,33.77,35.55
"2017-12-23 21:50:00",320160,0.318,171.1,-2.459,68.86,0,0,868.7621,0,30.46,2.889,174,2.323,3.232,0,0,51.94,59.44,33.77,35.55
"2017-12-23 22:00:00",320161,0.21,194.3,-2.647,69.13,0,0,868.8549,0,30.65,2.888,200,2.322,3.244,0,0,51.94,59.44,33.77,35.55
"2017-12-23 22:10:00",320162,0.144,168.4,-2.929,70.62,0,0,868.8549,0,30.27,2.896,185,2.322,3.263,0,0,51.99,59.44,33.79,35.55
"2017-12-23 22:20:00",320163,0.34,156.8,-3.796,75.03,0,0,868.7326,0,30.3,2.898,184,2.322,3.271,0,0,51.94,59.44,33.77,35.55
"2017-12-23 22:30:00",320164,0.412,182.2,-3.694,73.88,0,0,868.7895,0,30.37,2.895,189,2.322,3.263,0,0,51.94,59.44,33.77,35.55
"2017-12-23 22:40:00",320165,0.539,184.1,-3.706,73.17,0,0,868.7031,0,30.59,2.894,179,2.322,3.262,0,0,51.88,59.44,33.76,35.55
"2017-12-23 22:50:00",320166,0.323,184.8,-3.726,73.06,0,0,868.7516,0,30.35,2.898,183,2.322,3.252,0,0,51.94,59.44,33.77,35.55
"2017-12-23 23:00:00",320167,0.471,127.2,-3.375,71.9,0,0,868.3807,0,30.33,2.883,184,2.323,3.256,0.7243057,0,51.88,59.44,33.76,35.55
"2017-12-23 23:10:00",320168,1.951,44.79,-0.654,58.44,0.003933025,0,868.1446,0,30.41,2.878,179,2.331,3.262,2.354984,0.273,51.94,59.44,33.77,35.55
"2017-12-23 23:20:00",320169,1.757,26.59,-0.218,55.04,0,0,868.035,0,30.73,2.873,188,2.321,3.242,1.251475,0,51.94,59.44,33.77,35.55
"2017-12-23 23:30:00",320170,0.448,272.4,-0.133,51.56,0,0,868.0645,0,29.68,2.888,175,2.294,3.223,0.3413118,0,51.88,59.44,33.76,35.55
"2017-12-23 23:40:00",320171,0.421,172.2,-2.232,63.38,0,0,867.839,0,30.3,2.891,182,2.317,3.243,0,0,51.94,59.44,33.77,35.55
"2017-12-23 23:50:00",320172,0.377,165.3,-3.073,66.74,0,0,867.6072,0,30.37,2.893,179,2.344,3.251,0,0,51.94,59.44,33.77,35.55
